Time,TemperatureF,DewpointF,PressureIn,WindDirection,WindDirectionDegrees,WindSpeedMPH,WindSpeedGustMPH,Humidity,HourlyPrecipIn,Conditions,Clouds,dailyrainin,SolarRadiationWatts/m^2,SoftwareType,DateUTC
2013-02-21 00:00:00,21.0,15.0,-100.00,WNW,292,8.0,-999.0,74,-99.99,,,-99.99,0.000000,,2013-02-21 05:00:00,
2013-02-21 00:37:00,21.0,15.0,-100.00,WNW,292,8.0,-999.0,74,-99.99,,,-99.99,0.000000,,2013-02-21 05:37:00,
2013-02-21 00:46:00,21.0,15.0,-100.00,WNW,292,8.0,-999.0,74,-99.99,,,-99.99,0.000000,,2013-02-21 05:46:00,
2013-02-21 01:00:00,21.0,13.0,-100.00,SW,225,9.0,-999.0,71,-99.99,,,-99.99,0.000000,,2013-02-21 06:00:00,
2013-02-21 01:31:00,21.0,13.0,-100.00,SW,225,9.0,-999.0,71,-99.99,,,-99.99,0.000000,,2013-02-21 06:31:00,
2013-02-21 01:42:00,21.0,13.0,-100.00,SW,225,9.0,-999.0,71,-99.99,,,-99.99,0.000000,,2013-02-21 06:42:00,
2013-02-21 01:52:00,21.0,13.0,-100.00,SW,225,9.0,-999.0,71,-99.99,,,-99.99,0.000000,,2013-02-21 06:52:00,
2013-02-21 02:00:00,21.0,13.0,-100.00,SSE,157,8.0,-999.0,69,-99.99,,,-99.99,0.000000,,2013-02-21 07:00:00,
2013-02-21 02:42:00,21.0,13.0,-100.00,SSE,157,8.0,-999.0,69,-99.99,,,-99.99,0.000000,,2013-02-21 07:42:00,
2013-02-21 02:52:00,21.0,13.0,-100.00,SSE,157,8.0,-999.0,69,-99.99,,,-99.99,0.000000,,2013-02-21 07:52:00,
2013-02-21 03:00:00,21.0,14.0,-100.00,WSW,247,6.0,-999.0,74,-99.99,,,-99.99,0.000000,,2013-02-21 08:00:00,
2013-02-21 03:42:00,21.0,14.0,-100.00,WSW,247,6.0,-999.0,74,-99.99,,,-99.99,0.000000,,2013-02-21 08:42:00,
2013-02-21 03:52:00,21.0,14.0,-100.00,WSW,247,6.0,-999.0,74,-99.99,,,-99.99,0.000000,,2013-02-21 08:52:00,
2013-02-21 04:00:00,21.0,13.0,-100.00,SSW,202,8.0,-999.0,71,-99.99,,,-99.99,0.000000,,2013-02-21 09:00:00,
2013-02-21 04:42:00,21.0,13.0,-100.00,SSW,202,8.0,-999.0,71,-99.99,,,-99.99,0.000000,,2013-02-21 09:42:00,
2013-02-21 04:52:00,21.0,13.0,-100.00,SSW,202,8.0,-999.0,71,-99.99,,,-99.99,0.000000,,2013-02-21 09:52:00,
2013-02-21 05:00:00,21.0,14.0,-100.00,NW,315,7.0,-999.0,73,-99.99,,,-99.99,0.000000,,2013-02-21 10:00:00,
2013-02-21 05:31:00,21.0,14.0,-100.00,NW,315,7.0,-999.0,73,-99.99,,,-99.99,0.000000,,2013-02-21 10:31:00,
2013-02-21 05:41:00,21.0,14.0,-100.00,NW,315,7.0,-999.0,73,-99.99,,,-99.99,0.000000,,2013-02-21 10:41:00,
2013-02-21 05:51:00,21.0,14.0,-100.00,NW,315,7.0,-999.0,73,-99.99,,,-99.99,0.000000,,2013-02-21 10:51:00,
2013-02-21 06:00:00,21.0,14.0,-100.00,WSW,247,7.0,-999.0,72,-99.99,,,-99.99,0.000000,,2013-02-21 11:00:00,
2013-02-21 06:41:00,21.0,14.0,-100.00,WSW,247,7.0,-999.0,72,-99.99,,,-99.99,0.000000,,2013-02-21 11:41:00,
2013-02-21 06:52:00,21.0,14.0,-100.00,WSW,247,7.0,-999.0,72,-99.99,,,-99.99,0.000000,,2013-02-21 11:52:00,
2013-02-21 07:00:00,22.0,14.0,-100.00,SSE,157,7.0,-999.0,71,-99.99,,,-99.99,0.000000,,2013-02-21 12:00:00,
2013-02-21 07:43:00,22.0,14.0,-100.00,SSE,157,7.0,-999.0,71,-99.99,,,-99.99,0.000000,,2013-02-21 12:43:00,
2013-02-21 07:53:00,22.0,14.0,-100.00,SSE,157,7.0,-999.0,71,-99.99,,,-99.99,0.000000,,2013-02-21 12:53:00,
2013-02-21 09:00:00,22.0,14.0,-100.00,NNE,22,9.0,-999.0,71,-99.99,,,-99.99,33.639999,,2013-02-21 14:00:00,
2013-02-21 09:42:00,22.0,14.0,-100.00,NNE,22,9.0,-999.0,71,-99.99,,,-99.99,33.639999,,2013-02-21 14:42:00,
2013-02-21 09:52:00,22.0,14.0,-100.00,NNE,22,9.0,-999.0,71,-99.99,,,-99.99,33.639999,,2013-02-21 14:52:00,
2013-02-21 10:00:00,23.0,14.0,-100.00,NE,45,6.0,-999.0,68,-99.99,,,-99.99,97.440002,,2013-02-21 15:00:00,
2013-02-21 10:42:00,23.0,14.0,-100.00,NE,45,6.0,-999.0,68,-99.99,,,-99.99,97.440002,,2013-02-21 15:42:00,
2013-02-21 10:52:00,23.0,14.0,-100.00,NE,45,6.0,-999.0,68,-99.99,,,-99.99,97.440002,,2013-02-21 15:52:00,
2013-02-21 11:00:00,23.0,14.0,-100.00,NE,45,5.0,-999.0,66,-99.99,,,-99.99,157.759995,,2013-02-21 16:00:00,
2013-02-21 11:42:00,23.0,14.0,-100.00,NE,45,5.0,-999.0,66,-99.99,,,-99.99,157.759995,,2013-02-21 16:42:00,
2013-02-21 11:52:00,23.0,14.0,-100.00,NE,45,5.0,-999.0,66,-99.99,,,-99.99,157.759995,,2013-02-21 16:52:00,
2013-02-21 12:00:00,24.0,14.0,-100.00,ENE,67,5.0,-999.0,64,-99.99,,,-99.99,178.639999,,2013-02-21 17:00:00,
2013-02-21 12:42:00,24.0,14.0,-100.00,ENE,67,5.0,-999.0,64,-99.99,,,-99.99,178.639999,,2013-02-21 17:42:00,
2013-02-21 12:52:00,24.0,14.0,-100.00,ENE,67,5.0,-999.0,64,-99.99,,,-99.99,178.639999,,2013-02-21 17:52:00,
2013-02-21 14:00:00,25.0,13.0,-100.00,SSE,157,3.0,-999.0,60,-99.99,,,-99.99,252.880005,,2013-02-21 19:00:00,
2013-02-21 14:42:00,25.0,13.0,-100.00,SSE,157,3.0,-999.0,60,-99.99,,,-99.99,252.880005,,2013-02-21 19:42:00,
2013-02-21 14:52:00,25.0,13.0,-100.00,SSE,157,3.0,-999.0,60,-99.99,,,-99.99,252.880005,,2013-02-21 19:52:00,
2013-02-21 15:00:00,25.0,13.0,-100.00,East,90,4.0,-999.0,60,-99.99,,,-99.99,228.520004,,2013-02-21 20:00:00,
2013-02-21 15:42:00,25.0,13.0,-100.00,East,90,4.0,-999.0,60,-99.99,,,-99.99,228.520004,,2013-02-21 20:42:00,
2013-02-21 15:53:00,25.0,13.0,-100.00,East,90,4.0,-999.0,60,-99.99,,,-99.99,228.520004,,2013-02-21 20:53:00,
2013-02-21 16:00:00,24.0,14.0,-100.00,East,90,5.0,-999.0,63,-99.99,,,-99.99,136.880005,,2013-02-21 21:00:00,
2013-02-21 16:42:00,24.0,14.0,-100.00,East,90,5.0,-999.0,63,-99.99,,,-99.99,136.880005,,2013-02-21 21:42:00,
2013-02-21 16:52:00,24.0,14.0,-100.00,East,90,5.0,-999.0,63,-99.99,,,-99.99,136.880005,,2013-02-21 21:52:00,
2013-02-21 17:00:00,24.0,14.0,-100.00,ESE,112,7.0,-999.0,64,-99.99,,,-99.99,93.959999,,2013-02-21 22:00:00,
2013-02-21 17:42:00,24.0,14.0,-100.00,ESE,112,7.0,-999.0,64,-99.99,,,-99.99,93.959999,,2013-02-21 22:42:00,
2013-02-21 17:52:00,24.0,14.0,-100.00,ESE,112,7.0,-999.0,64,-99.99,,,-99.99,93.959999,,2013-02-21 22:52:00,
2013-02-21 18:00:00,22.0,13.0,-100.00,ESE,112,8.0,-999.0,67,-99.99,,,-99.99,48.720001,,2013-02-21 23:00:00,
2013-02-21 18:42:00,22.0,13.0,-100.00,ESE,112,8.0,-999.0,67,-99.99,,,-99.99,48.720001,,2013-02-21 23:42:00,
2013-02-21 18:53:00,22.0,13.0,-100.00,ESE,112,8.0,-999.0,67,-99.99,,,-99.99,48.720001,,2013-02-21 23:53:00,
2013-02-21 19:00:00,21.0,13.0,-100.00,ESE,112,8.0,-999.0,68,-99.99,,,-99.99,1.160000,,2013-02-22 00:00:00,
2013-02-21 19:42:00,21.0,13.0,-100.00,ESE,112,8.0,-999.0,68,-99.99,,,-99.99,1.160000,,2013-02-22 00:42:00,
2013-02-21 19:52:00,21.0,13.0,-100.00,ESE,112,8.0,-999.0,68,-99.99,,,-99.99,1.160000,,2013-02-22 00:52:00,
2013-02-21 20:00:00,21.0,13.0,-100.00,ESE,112,7.0,-999.0,70,-99.99,,,-99.99,0.000000,,2013-02-22 01:00:00,
2013-02-21 20:42:00,21.0,13.0,-100.00,ESE,112,7.0,-999.0,70,-99.99,,,-99.99,0.000000,,2013-02-22 01:42:00,
2013-02-21 20:52:00,21.0,13.0,-100.00,ESE,112,7.0,-999.0,70,-99.99,,,-99.99,0.000000,,2013-02-22 01:52:00,
2013-02-21 21:00:00,21.0,13.0,-100.00,East,90,6.0,-999.0,72,-99.99,,,-99.99,0.000000,,2013-02-22 02:00:00,
2013-02-21 21:42:00,21.0,13.0,-100.00,East,90,6.0,-999.0,72,-99.99,,,-99.99,0.000000,,2013-02-22 02:42:00,
2013-02-21 21:52:00,21.0,13.0,-100.00,East,90,6.0,-999.0,72,-99.99,,,-99.99,0.000000,,2013-02-22 02:52:00,
2013-02-21 22:00:00,21.0,14.0,-100.00,ESE,112,7.0,-999.0,73,-99.99,,,-99.99,0.000000,,2013-02-22 03:00:00,
2013-02-21 22:42:00,21.0,14.0,-100.00,ESE,112,7.0,-999.0,73,-99.99,,,-99.99,0.000000,,2013-02-22 03:42:00,
2013-02-21 22:52:00,21.0,14.0,-100.00,ESE,112,7.0,-999.0,73,-99.99,,,-99.99,0.000000,,2013-02-22 03:52:00,
2013-02-21 23:00:00,22.0,15.0,-100.00,ESE,112,8.0,-999.0,74,-99.99,,,-99.99,0.000000,,2013-02-22 04:00:00,
2013-02-21 23:42:00,22.0,15.0,-100.00,ESE,112,8.0,-999.0,74,-99.99,,,-99.99,0.000000,,2013-02-22 04:42:00,
2013-02-21 23:52:00,22.0,15.0,-100.00,ESE,112,8.0,-999.0,74,-99.99,,,-99.99,0.000000,,2013-02-22 04:52:00,